When you browse on this site, cookies collect data to enhance your experience and personalize the content and advertising you see.
Visit our Privacy Policy to learn more. By continuing to use the site, you agree to this use of cookies and data.
  • In Portugal
  • List of Countries
  • For 7 days
  • Water Temperature
  • Satellite Maps
  • Weather Map
  • Weather Widgets
  • user-avatar
    Login

    Hourly Weather Putyatino

    Today, 20 November, Tuesday

    Time Temperature Precipitation Wind Pressure Humidity
    00:00 -2°C° 0 mm 3 mps 754 mmHg 92%
    01:00 -2°C° 0 mm 3 mps 754 mmHg 92%
    02:00 -4°C° 0 mm 3 mps 754 mmHg 92%
    03:00 -3°C° 0 mm 2 mps 754 mmHg 92%
    04:00 -3°C° 0 mm 2 mps 753 mmHg 92%
    05:00 -4°C° 0 mm 2 mps 753 mmHg 93%
    06:00 -4°C° 0 mm 2 mps 753 mmHg 93%
    07:00 -4°C° 0 mm 2 mps 753 mmHg 93%
    08:00 -4°C° 0 mm 2 mps 753 mmHg 93%
    09:00 -4°C° 0 mm 2 mps 753 mmHg 90%
    10:00 -3°C° 0 mm 2 mps 753 mmHg 87%
    11:00 -2°C° 0 mm 2 mps 753 mmHg 84%
    12:00 0°C° 0 mm 1 mps 753 mmHg 84%
    13:00 0°C° 0 mm 1 mps 752 mmHg 83%
    14:00 0°C° 0 mm 1 mps 752 mmHg 83%
    15:00 -1°C° 0 mm 1 mps 752 mmHg 86%
    16:00 -1°C° 0 mm 1 mps 752 mmHg 88%
    17:00 -4°C° 0 mm 2 mps 752 mmHg 91%
    18:00 -4°C° 0 mm 2 mps 752 mmHg 91%
    19:00 -3°C° 0 mm 1 mps 752 mmHg 92%
    20:00 -3°C° 0 mm 1 mps 752 mmHg 93%
    21:00 -3°C° 0 mm 1 mps 752 mmHg 93%
    22:00 -3°C° 0 mm 1 mps 752 mmHg 93%
    23:00 -3°C° 0 mm 1 mps 752 mmHg 93%

    Tomorrow, 21 November, Wednesday

    Time Temperature Precipitation Wind Pressure Humidity
    00:00 -5°C° 0 mm 2 mps 751 mmHg 92%
    01:00 -5°C° 0 mm 2 mps 751 mmHg 91%
    02:00 -5°C° 0 mm 2 mps 751 mmHg 91%
    03:00 -5°C° 0 mm 2 mps 751 mmHg 90%
    04:00 -5°C° 0 mm 2 mps 751 mmHg 89%
    05:00 -5°C° 0 mm 2 mps 751 mmHg 88%
    06:00 -5°C° 0 mm 2 mps 751 mmHg 88%
    07:00 -5°C° 0 mm 2 mps 751 mmHg 88%
    08:00 -5°C° 0 mm 2 mps 751 mmHg 88%
    09:00 -5°C° 0 mm 3 mps 751 mmHg 87%
    10:00 -4°C° 0 mm 3 mps 751 mmHg 86%
    11:00 -2°C° 0 mm 3 mps 751 mmHg 85%
    12:00 -2°C° 0 mm 3 mps 751 mmHg 84%
    13:00 -2°C° 0 mm 3 mps 751 mmHg 82%
    14:00 -1°C° 0 mm 3 mps 751 mmHg 81%
    15:00 -2°C° 0 mm 3 mps 751 mmHg 82%
    16:00 -2°C° 0 mm 2 mps 751 mmHg 83%
    17:00 -2°C° 0 mm 2 mps 751 mmHg 84%
    18:00 -3°C° 0 mm 2 mps 751 mmHg 86%
    19:00 -4°C° 0 mm 2 mps 751 mmHg 88%
    20:00 -4°C° 0 mm 2 mps 751 mmHg 90%
    21:00 -4°C° 0 mm 2 mps 751 mmHg 92%
    22:00 -5°C° 0 mm 2 mps 751 mmHg 93%
    23:00 -5°C° 0 mm 2 mps 751 mmHg 94%

    Day after tomorrow, 22 November, Thursday

    Time Temperature Precipitation Wind Pressure Humidity
    00:00 -5°C° 0 mm 2 mps 751 mmHg 94%
    01:00 -5°C° 0 mm 2 mps 751 mmHg 94%
    02:00 -5°C° 0 mm 2 mps 751 mmHg 94%
    03:00 -6°C° 0 mm 3 mps 751 mmHg 93%
    04:00 -6°C° 0 mm 3 mps 751 mmHg 92%
    05:00 -6°C° 0 mm 3 mps 751 mmHg 92%
    06:00 -6°C° 0 mm 3 mps 751 mmHg 92%
    07:00 -6°C° 0 mm 3 mps 750 mmHg 92%
    08:00 -6°C° 0 mm 3 mps 750 mmHg 93%
    09:00 -5°C° 0 mm 3 mps 750 mmHg 91%
    10:00 -5°C° 0 mm 4 mps 750 mmHg 90%
    11:00 -4°C° 0 mm 4 mps 750 mmHg 88%
    12:00 -4°C° 0 mm 4 mps 749 mmHg 87%
    13:00 -4°C° 0 mm 4 mps 749 mmHg 86%
    14:00 -5°C° 0 mm 5 mps 749 mmHg 86%
    15:00 -5°C° 0 mm 5 mps 748 mmHg 87%
    16:00 -5°C° 0 mm 5 mps 748 mmHg 88%
    17:00 -6°C° 0 mm 5 mps 748 mmHg 89%
    18:00 -6°C° 0 mm 5 mps 748 mmHg 90%
    19:00 -6°C° 0 mm 5 mps 748 mmHg 91%
    20:00 -6°C° 0 mm 5 mps 748 mmHg 91%
    21:00 -6°C° 0 mm 5 mps 749 mmHg 90%
    22:00 -5°C° 0 mm 5 mps 749 mmHg 89%
    23:00 -4°C° 0 mm 4 mps 749 mmHg 88%

    23 November, Friday

    Time Temperature Precipitation Wind Pressure Humidity
    00:00 -4°C° 0 mm 4 mps 749 mmHg 88%
    01:00 -4°C° 0 mm 3 mps 750 mmHg 89%
    02:00 -4°C° 0 mm 3 mps 750 mmHg 90%
    03:00 -4°C° 0 mm 3 mps 750 mmHg 91%
    04:00 -4°C° 0 mm 3 mps 750 mmHg 92%
    05:00 -3°C° 0 mm 2 mps 751 mmHg 93%
    06:00 -3°C° 0 mm 2 mps 751 mmHg 94%
    07:00 -3°C° 0 mm 2 mps 751 mmHg 94%
    08:00 -1°C° 0 mm 1 mps 752 mmHg 95%
    09:00 0°C° 0 mm 1 mps 752 mmHg 93%
    10:00 0°C° 0 mm 1 mps 753 mmHg 91%
    11:00 +1°C° 0 mm 1 mps 753 mmHg 89%
    12:00 +1°C° 0 mm 1 mps 753 mmHg 89%
    13:00 +1°C° 0 mm 1 mps 753 mmHg 90%
    14:00 -1°C° 0 mm 2 mps 753 mmHg 90%
    15:00 -2°C° 0 mm 2 mps 753 mmHg 91%
    16:00 -2°C° 0 mm 2 mps 753 mmHg 92%
    17:00 -2°C° 0 mm 2 mps 753 mmHg 94%
    18:00 -2°C° 0 mm 2 mps 752 mmHg 93%
    19:00 -2°C° 0 mm 3 mps 752 mmHg 92%
    20:00 -2°C° 0 mm 3 mps 752 mmHg 91%
    21:00 -4°C° 0 mm 3 mps 752 mmHg 91%
    22:00 -4°C° 0 mm 3 mps 751 mmHg 91%
    23:00 -4°C° 0 mm 3 mps 751 mmHg 91%

    24 November, Saturday

    Time Temperature Precipitation Wind Pressure Humidity
    00:00 -5°C° 0 mm 4 mps 751 mmHg 92%
    01:00 -5°C° 0 mm 4 mps 750 mmHg 92%
    02:00 -7°C° 0 mm 4 mps 750 mmHg 93%
    03:00 -7°C° 0 mm 4 mps 749 mmHg 93%
    04:00 -7°C° 0 mm 4 mps 749 mmHg 93%
    05:00 -7°C° 0 mm 4 mps 749 mmHg 93%
    06:00 -8°C° 0 mm 4 mps 748 mmHg 93%
    07:00 -8°C° 0 mm 4 mps 748 mmHg 93%
    08:00 -8°C° 0 mm 4 mps 747 mmHg 93%
    09:00 -7°C° 0 mm 4 mps 747 mmHg 90%
    10:00 -7°C° 0 mm 4 mps 747 mmHg 87%
    11:00 -5°C° 0 mm 4 mps 747 mmHg 85%
    12:00 -5°C° 0 mm 4 mps 747 mmHg 84%
    13:00 -5°C° 0 mm 3 mps 746 mmHg 83%
    14:00 -4°C° 0 mm 3 mps 746 mmHg 82%
    15:00 -5°C° 0 mm 3 mps 746 mmHg 85%
    16:00 -5°C° 0 mm 3 mps 745 mmHg 87%
    17:00 -5°C° 0 mm 2 mps 745 mmHg 90%
    18:00 -5°C° 0 mm 2 mps 745 mmHg 90%
    19:00 -5°C° 0 mm 2 mps 745 mmHg 90%
    20:00 -5°C° 0 mm 2 mps 745 mmHg 90%
    21:00 -3°C° 0 mm 1 mps 745 mmHg 90%
    22:00 -3°C° 0 mm 1 mps 745 mmHg 90%
    23:00 -3°C° 0 mm 1 mps 745 mmHg 90%

    25 November, Sunday

    Time Temperature Precipitation Wind Pressure Humidity
    00:00 -4°C° 0 mm 1 mps 745 mmHg 90%
    01:00 -4°C° 0 mm 1 mps 744 mmHg 90%
    02:00 -4°C° 0 mm 1 mps 744 mmHg 90%
    03:00 -4°C° 0 mm 1 mps 744 mmHg 90%
    04:00 -4°C° 0 mm 1 mps 744 mmHg 91%
    05:00 -4°C° 0 mm 1 mps 744 mmHg 91%
    06:00 -4°C° 0 mm 1 mps 744 mmHg 91%
    07:00 -4°C° 0 mm 1 mps 744 mmHg 92%
    08:00 -4°C° 0 mm 1 mps 744 mmHg 92%
    09:00 -3°C° 0 mm 1 mps 744 mmHg 90%
    10:00 -3°C° 0 mm 1 mps 744 mmHg 88%
    11:00 -2°C° 0 mm 1 mps 744 mmHg 87%
    12:00 -2°C° 0 mm 1 mps 744 mmHg 87%
    13:00 -2°C° 0 mm 1 mps 744 mmHg 87%
    14:00 -1°C° 0 mm 1 mps 744 mmHg 88%
    15:00 -2°C° 0 mm 1 mps 744 mmHg 89%
    16:00 -4°C° 0 mm 2 mps 743 mmHg 91%
    17:00 -5°C° 0 mm 2 mps 743 mmHg 92%
    18:00 -5°C° 0 mm 2 mps 743 mmHg 92%
    19:00 -5°C° 0 mm 2 mps 743 mmHg 92%
    20:00 -5°C° 0 mm 2 mps 743 mmHg 92%
    21:00 -5°C° 0 mm 2 mps 743 mmHg 92%
    22:00 -5°C° 0 mm 2 mps 743 mmHg 92%
    23:00 -5°C° 0 mm 2 mps 743 mmHg 92%
    Show more